Time,TemperatureF,DewpointF,PressureIn,WindDirection,WindDirectionDegrees,WindSpeedMPH,WindSpeedGustMPH,Humidity,HourlyPrecipIn,Conditions,Clouds,dailyrainin,SolarRadiationWatts/m^2,SoftwareType,DateUTC
2013-04-10 00:02:00,31.0,20.0,-100.00,South,186,0.0,5.0,62,0.00,,,0.00,0.000000,,2013-04-10 06:02:00,
2013-04-10 00:12:00,31.0,20.0,-100.00,South,186,0.0,5.0,62,0.00,,,0.00,0.000000,,2013-04-10 06:12:00,
2013-04-10 00:22:00,31.0,20.0,-100.00,South,186,0.0,5.0,62,0.00,,,0.00,0.000000,,2013-04-10 06:22:00,
2013-04-10 00:52:00,30.0,20.0,-100.00,SSW,195,0.0,4.0,66,0.00,,,0.00,0.000000,,2013-04-10 06:52:00,
2013-04-10 01:02:00,30.0,20.0,-100.00,SSW,195,0.0,4.0,66,0.00,,,0.00,0.000000,,2013-04-10 07:02:00,
2013-04-10 01:12:00,30.0,20.0,-100.00,SSW,195,0.0,4.0,66,0.00,,,0.00,0.000000,,2013-04-10 07:12:00,
2013-04-10 01:22:00,30.0,20.0,-100.00,SSW,195,0.0,4.0,66,0.00,,,0.00,0.000000,,2013-04-10 07:22:00,
2013-04-10 01:52:00,27.0,20.0,-100.00,North,3,0.0,3.0,75,0.00,,,0.00,0.000000,,2013-04-10 07:52:00,
2013-04-10 02:02:00,27.0,20.0,-100.00,North,3,0.0,3.0,75,0.00,,,0.00,0.000000,,2013-04-10 08:02:00,
2013-04-10 02:12:00,27.0,20.0,-100.00,North,3,0.0,3.0,75,0.00,,,0.00,0.000000,,2013-04-10 08:12:00,
2013-04-10 02:22:00,27.0,20.0,-100.00,North,3,0.0,3.0,75,0.00,,,0.00,0.000000,,2013-04-10 08:22:00,
2013-04-10 02:52:00,26.0,20.0,-100.00,ENE,72,0.0,0.0,77,0.00,,,0.00,0.000000,,2013-04-10 08:52:00,
2013-04-10 03:02:00,26.0,20.0,-100.00,ENE,72,0.0,0.0,77,0.00,,,0.00,0.000000,,2013-04-10 09:02:00,
2013-04-10 03:12:00,26.0,20.0,-100.00,ENE,72,0.0,0.0,77,0.00,,,0.00,0.000000,,2013-04-10 09:12:00,
2013-04-10 03:22:00,26.0,20.0,-100.00,ENE,72,0.0,0.0,77,0.00,,,0.00,0.000000,,2013-04-10 09:22:00,
2013-04-10 03:53:00,28.0,21.0,-100.00,NE,53,0.0,0.0,76,0.00,,,0.00,0.000000,,2013-04-10 09:53:00,
2013-04-10 04:02:00,28.0,21.0,-100.00,NE,53,0.0,0.0,76,0.00,,,0.00,0.000000,,2013-04-10 10:02:00,
2013-04-10 04:12:00,28.0,21.0,-100.00,NE,53,0.0,0.0,76,0.00,,,0.00,0.000000,,2013-04-10 10:12:00,
2013-04-10 04:23:00,28.0,21.0,-100.00,NE,53,0.0,0.0,76,0.00,,,0.00,0.000000,,2013-04-10 10:23:00,
2013-04-10 04:52:00,28.0,21.0,-100.00,WSW,255,0.0,0.0,76,0.00,,,0.00,0.000000,,2013-04-10 10:52:00,
2013-04-10 05:02:00,28.0,21.0,-100.00,WSW,255,0.0,0.0,76,0.00,,,0.00,0.000000,,2013-04-10 11:02:00,
2013-04-10 05:12:00,28.0,21.0,-100.00,WSW,255,0.0,0.0,76,0.00,,,0.00,0.000000,,2013-04-10 11:12:00,
2013-04-10 05:22:00,28.0,21.0,-100.00,WSW,255,0.0,0.0,76,0.00,,,0.00,0.000000,,2013-04-10 11:22:00,
2013-04-10 07:53:00,29.0,24.0,-100.00,ESE,110,0.0,0.0,82,-99.99,,,0.00,0.000000,,2013-04-10 13:53:00,
2013-04-10 08:02:00,29.0,24.0,-100.00,ESE,110,0.0,0.0,82,-99.99,,,0.00,0.000000,,2013-04-10 14:02:00,
2013-04-10 08:21:00,29.0,24.0,-100.00,ESE,110,0.0,0.0,82,-99.99,,,0.00,0.000000,,2013-04-10 14:21:00,
2013-04-10 08:52:00,31.0,24.0,-100.00,North,7,2.0,2.0,74,0.00,,,0.00,38.000000,,2013-04-10 14:52:00,
2013-04-10 09:02:00,31.0,24.0,-100.00,North,7,2.0,2.0,74,0.00,,,0.00,38.000000,,2013-04-10 15:02:00,
2013-04-10 09:12:00,31.0,24.0,-100.00,North,7,2.0,2.0,74,0.00,,,0.00,38.000000,,2013-04-10 15:12:00,
2013-04-10 09:22:00,31.0,24.0,-100.00,North,7,2.0,2.0,74,0.00,,,0.00,38.000000,,2013-04-10 15:22:00,
2013-04-10 09:52:00,33.0,23.0,-100.00,NNE,25,0.0,5.0,66,0.00,,,0.00,81.000000,,2013-04-10 15:52:00,
2013-04-10 10:02:00,33.0,23.0,-100.00,NNE,25,0.0,5.0,66,0.00,,,0.00,81.000000,,2013-04-10 16:02:00,
2013-04-10 10:12:00,33.0,23.0,-100.00,NNE,25,0.0,5.0,66,0.00,,,0.00,81.000000,,2013-04-10 16:12:00,
2013-04-10 10:23:00,33.0,23.0,-100.00,NNE,25,0.0,5.0,66,0.00,,,0.00,81.000000,,2013-04-10 16:23:00,
2013-04-10 10:53:00,35.0,23.0,-100.00,North,11,1.0,3.0,60,0.00,,,0.00,165.000000,,2013-04-10 16:53:00,
2013-04-10 11:02:00,35.0,23.0,-100.00,North,11,1.0,3.0,60,0.00,,,0.00,165.000000,,2013-04-10 17:02:00,
2013-04-10 11:12:00,35.0,23.0,-100.00,North,11,1.0,3.0,60,0.00,,,0.00,165.000000,,2013-04-10 17:12:00,
2013-04-10 11:22:00,35.0,23.0,-100.00,North,11,1.0,3.0,60,0.00,,,0.00,165.000000,,2013-04-10 17:22:00,
2013-04-10 11:52:00,43.0,25.0,-100.00,North,9,4.0,5.0,49,-99.99,,,-99.99,378.000000,,2013-04-10 17:52:00,
2013-04-10 12:02:00,43.0,25.0,-100.00,North,9,4.0,5.0,49,-99.99,,,-99.99,378.000000,,2013-04-10 18:02:00,
2013-04-10 12:12:00,43.0,25.0,-100.00,North,9,4.0,5.0,49,-99.99,,,-99.99,378.000000,,2013-04-10 18:12:00,
2013-04-10 12:22:00,43.0,25.0,-100.00,North,9,4.0,5.0,49,-99.99,,,-99.99,378.000000,,2013-04-10 18:22:00,
2013-04-10 12:52:00,49.0,27.0,-100.00,North,352,6.0,9.0,43,0.00,,,0.00,604.000000,,2013-04-10 18:52:00,
2013-04-10 13:03:00,49.0,27.0,-100.00,North,352,6.0,9.0,43,0.00,,,0.00,604.000000,,2013-04-10 19:03:00,
2013-04-10 13:12:00,49.0,27.0,-100.00,North,352,6.0,9.0,43,0.00,,,0.00,604.000000,,2013-04-10 19:12:00,
2013-04-10 13:22:00,49.0,27.0,-100.00,North,352,6.0,9.0,43,0.00,,,0.00,604.000000,,2013-04-10 19:22:00,
2013-04-10 13:53:00,50.0,28.0,-100.00,North,357,3.0,11.0,43,0.00,,,0.00,633.000000,,2013-04-10 19:53:00,
2013-04-10 14:02:00,50.0,28.0,-100.00,North,357,3.0,11.0,43,0.00,,,0.00,633.000000,,2013-04-10 20:02:00,
2013-04-10 14:12:00,50.0,28.0,-100.00,North,357,3.0,11.0,43,0.00,,,0.00,633.000000,,2013-04-10 20:12:00,
2013-04-10 14:22:00,50.0,28.0,-100.00,North,357,3.0,11.0,43,0.00,,,0.00,633.000000,,2013-04-10 20:22:00,
2013-04-10 14:52:00,52.0,33.0,-100.00,WNW,293,3.0,9.0,48,0.00,,,0.00,336.000000,,2013-04-10 20:52:00,
2013-04-10 15:02:00,52.0,33.0,-100.00,WNW,293,3.0,9.0,48,0.00,,,0.00,336.000000,,2013-04-10 21:02:00,
2013-04-10 15:12:00,52.0,33.0,-100.00,WNW,293,3.0,9.0,48,0.00,,,0.00,336.000000,,2013-04-10 21:12:00,
2013-04-10 15:22:00,52.0,33.0,-100.00,WNW,293,3.0,9.0,48,0.00,,,0.00,336.000000,,2013-04-10 21:22:00,
2013-04-10 15:53:00,55.0,36.0,-100.00,North,350,4.0,11.0,49,0.00,,,0.00,419.000000,,2013-04-10 21:53:00,
2013-04-10 16:03:00,55.0,36.0,-100.00,North,350,4.0,11.0,49,0.00,,,0.00,419.000000,,2013-04-10 22:03:00,
2013-04-10 16:12:00,55.0,36.0,-100.00,North,350,4.0,11.0,49,0.00,,,0.00,419.000000,,2013-04-10 22:12:00,
2013-04-10 16:22:00,55.0,36.0,-100.00,North,350,4.0,11.0,49,0.00,,,0.00,419.000000,,2013-04-10 22:22:00,
2013-04-10 16:53:00,54.0,36.0,-100.00,SW,231,5.0,13.0,50,0.00,,,0.00,262.000000,,2013-04-10 22:53:00,
2013-04-10 17:02:00,54.0,36.0,-100.00,SW,231,5.0,13.0,50,0.00,,,0.00,262.000000,,2013-04-10 23:02:00,
2013-04-10 17:12:00,54.0,36.0,-100.00,SW,231,5.0,13.0,50,0.00,,,0.00,262.000000,,2013-04-10 23:12:00,
2013-04-10 17:22:00,54.0,36.0,-100.00,SW,231,5.0,13.0,50,0.00,,,0.00,262.000000,,2013-04-10 23:22:00,
2013-04-10 17:53:00,54.0,38.0,-100.00,West,270,4.0,13.0,54,0.00,,,0.00,253.000000,,2013-04-10 23:53:00,
2013-04-10 18:02:00,54.0,38.0,-100.00,West,270,4.0,13.0,54,0.00,,,0.00,253.000000,,2013-04-11 00:02:00,
2013-04-10 18:12:00,54.0,38.0,-100.00,West,270,4.0,13.0,54,0.00,,,0.00,253.000000,,2013-04-11 00:12:00,
2013-04-10 18:22:00,54.0,38.0,-100.00,West,270,4.0,13.0,54,0.00,,,0.00,253.000000,,2013-04-11 00:22:00,
2013-04-10 18:53:00,53.0,34.0,-100.00,North,1,2.0,11.0,48,0.00,,,0.00,183.000000,,2013-04-11 00:53:00,
2013-04-10 19:02:00,53.0,34.0,-100.00,North,1,2.0,11.0,48,0.00,,,0.00,183.000000,,2013-04-11 01:02:00,
2013-04-10 19:12:00,53.0,34.0,-100.00,North,1,2.0,11.0,48,0.00,,,0.00,183.000000,,2013-04-11 01:12:00,
2013-04-10 19:22:00,53.0,34.0,-100.00,North,1,2.0,11.0,48,0.00,,,0.00,183.000000,,2013-04-11 01:22:00,
2013-04-10 19:52:00,50.0,38.0,-100.00,NNE,19,6.0,13.0,64,0.00,,,0.00,140.000000,,2013-04-11 01:52:00,
2013-04-10 20:02:00,50.0,38.0,-100.00,NNE,19,6.0,13.0,64,0.00,,,0.00,140.000000,,2013-04-11 02:02:00,
2013-04-10 20:12:00,50.0,38.0,-100.00,NNE,19,6.0,13.0,64,0.00,,,0.00,140.000000,,2013-04-11 02:12:00,
2013-04-10 20:22:00,50.0,38.0,-100.00,NNE,19,6.0,13.0,64,0.00,,,0.00,140.000000,,2013-04-11 02:22:00,
2013-04-10 20:53:00,48.0,40.0,-100.00,ENE,62,3.0,13.0,75,0.00,,,0.00,39.000000,,2013-04-11 02:53:00,
2013-04-10 21:02:00,48.0,40.0,-100.00,ENE,62,3.0,13.0,75,0.00,,,0.00,39.000000,,2013-04-11 03:02:00,
2013-04-10 21:12:00,48.0,40.0,-100.00,ENE,62,3.0,13.0,75,0.00,,,0.00,39.000000,,2013-04-11 03:12:00,
2013-04-10 21:22:00,48.0,40.0,-100.00,ENE,62,3.0,13.0,75,0.00,,,0.00,39.000000,,2013-04-11 03:22:00,
2013-04-10 21:53:00,42.0,36.0,-100.00,NNW,330,3.0,13.0,79,0.03,,,0.03,1.000000,,2013-04-11 03:53:00,
2013-04-10 22:03:00,42.0,36.0,-100.00,NNW,330,3.0,13.0,79,0.03,,,0.03,1.000000,,2013-04-11 04:03:00,
2013-04-10 22:12:00,42.0,36.0,-100.00,NNW,330,3.0,13.0,79,0.03,,,0.03,1.000000,,2013-04-11 04:12:00,
2013-04-10 22:22:00,42.0,36.0,-100.00,NNW,330,3.0,13.0,79,0.03,,,0.03,1.000000,,2013-04-11 04:22:00,
2013-04-10 22:53:00,42.0,28.0,-100.00,NW,313,4.0,15.0,58,0.00,,,0.03,0.000000,,2013-04-11 04:53:00,
2013-04-10 23:02:00,42.0,28.0,-100.00,NW,313,4.0,15.0,58,0.00,,,0.03,0.000000,,2013-04-11 05:02:00,
2013-04-10 23:12:00,42.0,28.0,-100.00,NW,313,4.0,15.0,58,0.00,,,0.03,0.000000,,2013-04-11 05:12:00,
2013-04-10 23:22:00,42.0,28.0,-100.00,NW,313,4.0,15.0,58,0.00,,,0.03,0.000000,,2013-04-11 05:22:00,
2013-04-10 23:52:00,41.0,30.0,-100.00,WNW,282,2.0,11.0,65,0.00,,,0.03,0.000000,,2013-04-11 05:52:00,